Zurück zum Katalog

H-2A DEB

AktivSSO
NORAD 38347·DEBRIS·🇯🇵 Japan

Gestartet May 17, 2012 von Tanegashima Space Center

Loading…

Nächste Überflüge (nächste 24 Stunden)

TLE

AktuellSource: Space-Track

Epoche: Sep 14, 2026, 08:27 UTC

1 38347U 12025H   26257.35212133  .00002569  00000-0  24744-3 0  9993
2 38347  98.2170  33.9084 0006250 169.8261 190.3085 14.93902385772115

Verfolge H-2A DEB in Echtzeit mit AllMySat

Download on the App Store